Weather observations for the past three days for
Georgetown, Georgetown Municipal Airport
Imperial (Metric)
Date Time (cdt) Wind (mph) Vis. (mi.) Weather Sky Cond. Temperature (ºF) Relative Humidity Wind Chill (°F) Heat Index (°F) Pressure Precipitation (in)
Air Dwpt 6 hour altimeter (in) sea level (mb) 1 hr 3 hr 6 hr
Max. Min.
21 07:53 E 6 1.50 Fog/Mist OVC002 73.9 73.9 100% 30.17 1020.8
21 06:56 NE 3 10.00 Overcast BKN012 OVC022 73.9 73 75.9 73 97% 30.15 1020.5
21 05:56 Calm 10.00 Fair CLR 73.9 73 97% 30.15 1020.2
21 04:56 N 3 10.00 Fair CLR 73 72 96% 30.14 1020.0
21 03:56 Calm 10.00 Partly Cloudy SCT018 SCT024 75 73 94% 73 30.14 1019.9
21 02:56 Calm 10.00 Fair CLR 73.9 73 97% 30.14 1020.0
21 01:56 Calm 10.00 Fair CLR 73.9 73 97% 30.16 1020.5
21 00:56 Calm 10.00 Fair CLR 75 73.9 88 75 96% 73 30.16 1020.6 0.01
20 23:56 Calm 10.00 Fair CLR 77 73.9 90% 78 30.16 1020.7
20 22:56 E 3 10.00 Partly Cloudy SCT060 77 73.9 90% 78 30.15 1020.2
20 21:56 E 5 10.00 Overcast FEW043 SCT055 OVC100 77 73.9 90% 78 30.13 1019.6 0.01 0.01
20 20:56 E 8 G 18 7.00 Light Rain FEW033 BKN060 OVC090 78.1 72 82% 80 30.12 1019.1
20 19:56 E 10 10.00 A Few Clouds FEW045 87.1 70 57% 92 30.09 1018.3
20 18:56 E 12 G 21 10.00 A Few Clouds FEW040 88 70 90 86 55% 93 30.08 1018.0
20 17:56 E 15 G 21 10.00 A Few Clouds FEW035 89.1 70 53% 94 30.08 1018.0
20 16:56 NE 15 10.00 Partly Cloudy SCT035 89.1 72 57% 96 30.09 1018.3
20 15:56 E 13 G 20 10.00 Partly Cloudy SCT030 88 72 59% 95 30.11 1019.1
20 14:56 NE 15 G 21 10.00 Mostly Cloudy SCT030 BKN034 BKN100 87.1 73 63% 95 30.12 1019.3
20 13:56 E 14 G 21 10.00 Mostly Cloudy SCT026 BKN034 BKN044 88 73 61% 96 30.13 1019.7
20 12:56 E 13 G 21 10.00 Mostly Cloudy BKN020 BKN028 87.1 73.9 87.1 75.9 65% 95 30.15 1020.4
20 11:56 E 13 10.00 Overcast BKN018 BKN025 OVC032 84 73.9 72% 91 30.15 1020.4
20 10:56 NE 14 G 18 10.00 Overcast BKN014 OVC022 81 73.9 79% 86 30.15 1020.4
20 09:56 E 10 10.00 Overcast OVC010 80.1 73.9 82% 85 30.15 1020.3
20 08:56 NE 8 10.00 Overcast OVC008 77 75 94% 78 30.14 1019.9
20 07:56 E 9 10.00 Overcast BKN008 OVC011 75.9 75 97% 75 30.12 1019.3
20 06:56 NE 9 9.00 Light Rain BKN008 OVC017 75.9 73.9 75.9 73.9 94% 75 30.09 1018.4 0.01
20 05:56 NE 8 10.00 Overcast OVC008 75 75 100% 72 30.08 1018.0
20 04:56 NE 9 10.00 Overcast OVC013 75 73.9 96% 73 30.07 1017.6 0.01
20 03:56 NE 8 10.00 Light Rain SCT009 BKN015 OVC021 75 73.9 96% 73 30.06 1017.3
20 02:56 N 7 10.00 Overcast OVC025 75 73.9 96% 73 30.06 1017.4
20 01:56 N 9 10.00 Light Rain BKN032 OVC100 75 73.9 96% 73 30.07 1017.5
20 00:56 N 9 10.00 Mostly Cloudy FEW100 BKN120 73.9 73 73.9 73 97% 30.08 1017.8 0.63
19 23:56 N 12 10.00 Light Rain OVC095 73 73 100% 30.09 1018.2 0.06
19 22:56 N 8 8.00 Light Rain BKN010 BKN060 OVC070 73 73 100% 30.1 1018.5 0.13
19 21:56 N 8 6.00 Rain Fog/Mist FEW011 BKN047 OVC065 73 72 96% 30.09 1018.4 0.23 0.44
19 20:56 N 10 6.00 Rain Fog/Mist FEW034 BKN055 OVC070 73.9 72 94% 30.07 1017.8 0.18
19 19:56 N 9 9.00 Light Rain OVC090 73.9 73 97% 30.04 1016.8 0.03
19 18:56 N 8 10.00 Light Rain BKN080 OVC090 73 71.1 82.9 73 94% 30.03 1016.4 0.02 0.11
19 17:56 N 13 G 20 10.00 Light Rain FEW010 OVC065 73.9 71.1 91% 30.03 1016.4 0.05
19 16:56 NE 10 G 17 10.00 Light Rain FEW014 BKN055 OVC065 75.9 73.9 94% 75 30.04 1016.6 0.01
19 15:56 NE 10 10.00 Light Rain BKN010 BKN035 OVC044 77 75 94% 78 30.04 1016.5 0.03 0.03
19 14:56 NE 15 G 21 10.00 Light Rain OVC012 77 75 94% 78 30.04 1016.5
19 13:56 NE 18 G 24 10.00 Light Rain SCT020 BKN026 OVC032 79 73.9 85% 83 30.03 1016.4
19 12:56 E 15 G 22 10.00 Overcast SCT022 BKN036 OVC095 82.9 71.1 82.9 73.9 67% 88 30.04 1016.6
19 11:56 NE 15 G 20 10.00 Overcast BKN019 BKN026 OVC030 82 71.1 69% 86 30.03 1016.4
19 10:56 NE 12 10.00 Overcast BKN017 OVC024 81 72 74% 85 30.02 1015.9
19 09:56 NE 12 10.00 Overcast OVC011 79 72 79% 82 30.01 1015.7
19 08:56 NE 13 10.00 Overcast OVC009 75.9 71.1 85% 76 30.01 1015.6
19 07:56 NE 10 10.00 Overcast BKN007 OVC013 73.9 72 94% 29.99 1014.7
19 06:56 NE 8 10.00 Overcast BKN007 BKN023 OVC031 73.9 72 77 73 94% 29.97 1014.2
19 05:56 NE 8 10.00 Overcast FEW008 OVC034 73.9 71.1 91% 29.95 1013.5
19 04:56 NE 8 10.00 Partly Cloudy SCT029 73 70 90% 29.94 1012.9
19 03:56 NE 5 10.00 Fair CLR 73.9 69.1 85% 29.92 1012.5
19 02:56 E 5 10.00 Fair CLR 75 69.1 82% 75 29.93 1012.8
19 01:56 E 3 10.00 Fair CLR 75 69.1 82% 75 29.93 1012.8
19 00:56 Calm 10.00 Fair CLR 77 69.1 88 77 77% 79 29.94 1013.2
18 23:56 SE 6 10.00 Fair CLR 78.1 68 71% 80 29.95 1013.4
18 22:56 SE 6 10.00 Fair CLR 79 68 69% 81 29.92 1012.6
18 21:56 SE 10 10.00 Fair CLR 81 66.9 62% 83 29.91 1012.0
18 20:56 SE 9 10.00 Partly Cloudy SCT043 82.9 69.1 63% 87 29.88 1011.1
18 19:56 E 12 G 16 10.00 A Few Clouds FEW041 87.1 66.9 51% 90 29.86 1010.5
18 18:56 SE 9 10.00 A Few Clouds FEW055 88 68 93 87.1 52% 92 29.85 1010.0
18 17:56 E 12 10.00 Partly Cloudy SCT048 90 70 52% 95 29.83 1009.6
18 16:56 E 8 G 18 10.00 A Few Clouds FEW050 91.9 69.1 47% 97 29.84 1009.5
18 15:56 SE 13 G 20 10.00 A Few Clouds FEW055 91.9 68 46% 96 29.84 1009.8
18 14:56 SE 10 G 18 10.00 A Few Clouds FEW044 91 69.1 49% 96 29.85 1010.1
18 13:56 E 8 G 16 10.00 Partly Cloudy SCT041 SCT050 90 70 52% 95 29.88 1010.9
18 12:56 SE 6 G 16 10.00 Mostly Cloudy FEW033 BKN041 BKN065 88 71.1 88 73.9 57% 94 29.89 1011.4
18 11:56 S 10 10.00 Mostly Cloudy BKN065 84.9 72 65% 91 29.9 1011.7
18 10:56 SE 8 10.00 Overcast SCT021 BKN028 OVC041 82 71.1 69% 86 29.9 1011.8
18 09:56 S 10 10.00 Overcast OVC019 81 71.1 72% 85 29.9 1011.8
18 08:56 S 12 G 16 10.00 Mostly Cloudy BKN013 79 72 79% 82 29.88 1011.3
Date Time (cdt) Wind (mph) Vis. (mi.) Weather Sky Cond. Air Dwpt Max. Min. Relative Humidity Wind Chill (°F) Heat Index (°F) altimeter (in) sea level (mb) 1 hr 3 hr 6 hr
6 hour
Temperature (ºF) Pressure Precipitation (in)